Flag for Kuwait Weather past 2 weeks in Kuwait City, Kuwait

Now
61 °F

Clear.


Feels Like: 61 °F
Forecast: 56 / 71 °F
Wind: No wind

Location: Kuwait International Airport

Current Time: Mar 2, 2015 at 11:40:10 PM

Latest Report: Mar 2, 2015 at 10:30 PM


Visibility: 10 mi

Pressure: 30.04 "Hg

Humidity: 42%

Dew point: 37 °F

Location of Kuwait CityLocation

Historic Weather in Kuwait City — Graph

°F

Kuwait City temperature yesterday

Maximum temperature yesterday: 79 °F (at 11:30 AM)
Minimum temperature yesterday: 48 °F (at 5:30 AM)
Average temperature yesterday: 64 °F

Past Weeks' High & Low Weather Summary

 TemperatureHumidityPressure
High81 °F (Mar 2, 2:30 PM)100% (Mar 2, 12:30 AM)30.21 "Hg (Mar 2, 12:30 AM)
Low37 °F (Feb 24, 6:30 AM)16% (Feb 27, 5:00 PM)29.59 "Hg (Feb 20, 1:30 PM)
Average62 °F51%29.99 "Hg
* Reported Feb 16 4:00 AM — Mar 2 10:30 PM, Kuwait City, Weather by CustomWeather, © 2015

Note: Actual official high and low records may vary slightly from our data, if they occured in-between our weather recording intervals... More about our weather records

Advertising

Kuwait City weather history for previous 24 hours

 ConditionsComfort  
Time TempWeatherWind HumidityBarometerVisibility
10:30 PM
Mon, Mar 2
61 °FClear.No wind42%30.04 "Hg10 mi
10:00 PM59 °FClear.6 mph45%30.01 "Hg10 mi
9:30 PM64 °FClear.5 mph34%30.01 "Hg10 mi
8:30 PM66 °FClear.No wind35%30.01 "Hg10 mi
8:00 PM66 °FClear.No wind35%29.98 "Hg10 mi
7:00 PM73 °FClear.8 mph20%29.95 "Hg10 mi
6:30 PM73 °FClear.7 mph20%29.95 "Hg10 mi
4:30 PM79 °FSunny.8 mph20%29.92 "Hg10 mi
4:00 PM81 °FSunny.5 mph18%29.89 "Hg10 mi
3:30 PM81 °FSunny.8 mph18%29.89 "Hg10 mi
3:00 PM81 °FSunny.8 mph18%29.92 "Hg10 mi
2:30 PM81 °FSunny.9 mph20%29.92 "Hg10 mi
2:00 PM79 °FSunny.9 mph21%29.92 "Hg10 mi
1:00 PM79 °FSunny.9 mph23%29.92 "Hg10 mi
10:30 AM72 °FSunny.7 mph36%29.98 "Hg10 mi
10:00 AM70 °FSunny.9 mph38%29.98 "Hg10 mi
9:30 AM68 °FSunny.8 mph40%29.98 "Hg10 mi
9:00 AM64 °FSunny.7 mph49%29.98 "Hg5 mi
8:30 AM63 °FSunny.5 mph56%29.98 "Hg3 mi
8:00 AM59 °FSunny.No wind68%29.95 "Hg2 mi
7:30 AM55 °FFog.3 mph82%29.95 "Hg1 mi
7:00 AM50 °FFog.5 mph94%29.95 "Hg1 mi
6:30 AM48 °FFog.No wind100%29.92 "Hg1 mi
6:00 AM50 °FFog.3 mph94%29.92 "Hg1 mi
5:30 AM50 °FFog.5 mph94%29.92 "Hg1 mi
5:00 AM50 °FFog.3 mph94%29.89 "Hg1 mi
4:30 AM50 °FFog.No wind88%29.89 "Hg1 mi
4:00 AM50 °FFog.3 mph94%29.89 "Hg2 mi
3:30 AM50 °FFog.No wind94%29.86 "Hg2 mi
3:00 AM50 °FFog.No wind94%29.86 "Hg2 mi
2:30 AM52 °FFog.No wind94%29.89 "Hg1 mi
2:00 AM54 °FFog.No wind94%29.89 "Hg1 mi
1:30 AM54 °FFog.No wind94%29.89 "Hg1 mi
1:00 AM54 °FFog.No wind94%29.89 "Hg1 mi
12:30 AM54 °FFog.No wind100%29.89 "Hg1 mi
12:00 AM57 °FFog.No wind94%29.89 "Hg2 mi
11:30 PM
Sun, Mar 1
55 °FFog.No wind94%29.89 "Hg2 mi
11:00 PM55 °FFog.No wind82%29.89 "Hg2 mi
Weather by CustomWeather, © 2015

See weather overviewHow to use our weather pages